Regional Weather Roundup
Issued by NWS Newport/Morehead, NC

Current Version | Previous Version | Graphics & Text | Print | Product List | Glossary Off
Versions: 1 2 3 4 5 6 7 8 9 10 11 12 13 14 15 16 17 18 19 20 21 22 23 24 25 26 27 28 29 30 31 32 33 34 35 36 37 38 39 40 41 42 43 44 45 46 47 48 49 50
000 ASUS42 KMHX 070825 RWRMHX WEATHER ROUNDUP FOR EASTERN NORTH CAROLINA NATIONAL WEATHER SERVICE NEWPORT/MOREHEAD CITY NC 300 AM EST SUN FEB 07 2016 NOTE: "FAIR" INDICATES FEW OR NO CLOUDS BELOW 12,000 FEET WITH NO SIGNIFICANT WEATHER AND/OR OBSTRUCTIONS TO VISIBILITY NCZ015>017-031-032-045>047-102-103-070900- NORTH COAST CITY SKY/WX TMP DP RH WIND PRES REMARKS EDENTON CLOUDY 38 33 79 NE3 30.20F ELIZABETH CITY CLOUDY 38 30 73 N12 30.18F KITTY HAWK CLOUDY 42 30 64 N10 30.15F MANTEO CLOUDY 42 32 69 NE16 30.17F $$ NCZ045>047-081-094-103-104-070900- CENTRAL COAST CITY SKY/WX TMP DP RH WIND PRES REMARKS FRISCO CLOUDY 45 38 76 NE15G26 30.12F SWANQUARTER N/A 41 N/A N/A NE15G22 30.09F $$ NCZ095-097-098-100-101-070900- SOUTHERN COAST CITY SKY/WX TMP DP RH WIND PRES REMARKS BEAUFORT LGT RAIN 40 30 67 N16G24 30.12S CEDAR ISLAND N/A 43 N/A N/A N26G36 30.15F JACKSONVILLE LGT RAIN 39 32 76 N22G31 30.11F PINEY ISLAND CLOUDY N/A N/A N/A MISG 30.09F WILMINGTON LGT RAIN 39 34 82 N16G26 30.09F $$ NCZ011>013-027>030-043-044-078>080-089-090>093-098-070900- COASTAL PLAIN CITY SKY/WX TMP DP RH WIND PRES REMARKS AHOSKIE CLOUDY 35 29 79 N5 30.19F CLINTON LGT RAIN 37 35 92 NE5 30.16F ELIZABETHTOWN RAIN 37 35 92 NE3 30.13R GOLDSBORO CLOUDY 37 37 100 NE5 30.15F GREENVILLE CLOUDY 39 32 75 CALM 30.20S HAVELOCK LGT RAIN 41 30 65 N18 30.14F KENANSVILLE LGT RAIN 36 34 91 CALM 30.18R KINSTON LGT RAIN 38 33 82 N6 30.17F NEW BERN LGT RAIN 40 29 64 N17G23 30.16F RICHLANDS CLOUDY 37 30 75 N9G21 30.14S ROCKY MOUNT LGT RAIN 38 30 73 NE5 30.19F WASHINGTON LGT RAIN 39 30 70 CALM 30.19F WHITEVILLE LGT RAIN 37 34 89 NE8 30.09F $$ AMZ130-135-150-152-154-156-158-170-250-252-270-ANZ085-086-088-633-658-670-070900- MARINE OBSERVATIONS STATION/POSITION TIME TEMP WIND PRES WAVE SWELL AIR SEA DIR/SP/G HT/PER HT/PER (UTC) (F) (DEG/KT/KT) (MB) (FT/S) (FT/S) CHESAPEAKE LIGHT 0800 41 30/ 13/ 14 1024.0 64 E VA BEACH 0750 46 53 20/ 17/ 21 1021.9 4/10 3/10 DUCK 0800 42 45 10/ 16/ 19 1020.7 2 E DUCK 0811 44 N/A 4/10 2/11 OREGON INLET 0800 43 46 360/ 14/ 20 1021.2 13E OREGON INLT 0800 47 N/A 6/11 2/11 HATTERAS CG 0800 44 50 360/ 29/ 33 1019.0 DIAMOND BUOY 0750 53 71 20/ 29/ 35 1017.3 6/ 6 3/11 CAPE LOOKOUT NOT AVBL BEAUFORT LAB 0800 42 48 10/ 17/ 19 1018.7 30 SE NEW RVR IN 0808 41 65 1015.0 30 SE NEW RVR IN 0725 65 N/A 7/ 6 2/11 27 SE WRIGHTSVLE 0808 47 68 30/ 31/ 43 1015.5 5 SE WRIGHTSVLE 0708 44 53 10/ 29/ 37 1018.3 225 S CAPE HAT 0750 65 69 120/ 17/ 21 N/A 7/11 5/11 41 SE CHARLESTON 0750 51 64 10/ 31/ 41 1012.2 11/ 7 $$

USA.gov is the U.S. government's official web portal to all federal, state and local government web resources and services.